Regional Weather Roundup
Issued by NWS Cleveland, OH

Home | Current Version | Previous Version | Text Only | Print | Product List | Glossary Off
Versions: 1 2 3 4 5 6 7 8 9 10 11 12 13 14 15 16 17 18 19 20 21 22 23 24 25 26 27 28 29 30 31 32 33 34 35 36 37 38 39 40 41 42 43 44 45 46 47 48 49 50

000
ASUS41 KCLE 301110
RWRCLE
OHIO REGIONAL WEATHER ROUNDUP
NATIONAL WEATHER SERVICE CLEVELAND, OH
700 AM EDT SAT MAY 30 2015

NOTE: "FAIR" INDICATES FEW OR NO CLOUDS BELOW 12,000 FEET WITH NO
SIGNIFICANT WEATHER AND/OR OBSTRUCTIONS TO VISIBILITY.

OHZ001>008-015>018-024>027-034-035-043-044-301200-
   NORTHWEST OHIO

CITY           SKY/WX    TMP DP  RH WIND       PRES   REMARKS
DEFIANCE       PTCLDY    69  64  84 S8        30.01R
FINDLAY        CLEAR     70  66  87 S9        30.03R
TOLEDO EXPRESS CLEAR     68  64  87 SW8       30.01R
TOLEDO EXEC    PTCLDY    71  64  78 S8        30.02R
LIMA           CLEAR     69  66  90 S9        30.04R
$$

OHZ009>014-019>023-028>033-038-089-301200-
   NORTHEAST OHIO

CITY           SKY/WX    TMP DP  RH WIND       PRES   REMARKS
CLE-HOPKINS    MOCLDY    71  64  78 S12       30.06S
CLE-LAKEFRONT  PTCLDY    74  64  71 S13       30.03S
CUY CO. ARPT   MOSUNNY   73  66  78 S12       30.06
LORAIN-ELYRIA  PTCLDY    70  65  84 S9        30.05R
ASHTABULA      CLOUDY    71  65  81 S12       30.07R
AKRON-CANTON   MOCLDY    70  63  78 S9        30.09R
WOOSTER        PTCLDY    68  65  90 S5        30.09R
MANSFIELD      PTCLDY    69  65  86 S9        30.09R
YOUNGSTOWN     PTSUNNY   69  63  81 S6        30.09R
$$

OHZ042-051>053-060>062-070>072-077>081-301200-
  SOUTHWEST OHIO

CITY           SKY/WX    TMP DP  RH WIND       PRES   REMARKS
CINC-COVINGTON MOCLDY    69  65  86 S5        30.08R
CINC-LUNKEN    CLOUDY    69  66  90 SW3       30.08R
HAMILTON       CLEAR     69  66  90 S3        30.08R
DAYTON         PTCLDY    70  66  87 S9        30.08R
WRIGHT-PAT AFB CLEAR     69  66  93 S8        30.07R
DAYTON GENERAL PTCLDY    67  65  93 S7        30.07R
WILMINGTON     CLOUDY    69  64  84 S9        30.09R
$$

OHZ036-037-039>041-045>050-054>059-063>069-073>076-082>088-301200-
  CENTRAL AND SOUTHEAST OHIO

CITY           SKY/WX    TMP DP  RH WIND       PRES   REMARKS
COLUMBUS       MOCLDY    70  66  87 S8        30.08R
OSU AIRPORT    PTCLDY    70  64  81 S8        30.08R
BOLTON FIELD   NOT AVBL
RICKENBACK AFB MOCLDY    69  65  89 S6        30.08R
NEWARK         CLOUDY    71  66  84 S7        30.09R
MARION         PTCLDY    69  64  84 SW8       30.07R
LANCASTER      MOCLDY    71  65  81 S6        30.10R
ZANESVILLE     NOT AVBL
NEW PHILLY     PTCLDY    70  64  81 S6        30.10R
$$



USA.gov is the U.S. government's official web portal to all federal, state and local government web resources and services.